BREEZE-M DEB, 36962

Orbit data source: Space-Track

BREEZE-M DEB, 36962 is space debris originally from a launch on Tue, 28 Feb 2006 UTC launched from the Tyuratam Missile And Space Complex (TTMTR). Debris objects in space refer to the collection of defunct objects orbiting the Earth. Examples of debris include non-operational satellites, rocket bodies, and fragments generated from explosions, collisions, or faulty payload assembly.

Loading next visibility...
Identifier
36962, 2006-006CU
Orbit
Active
Country
Flag of CISCIS
Related business
Manufacturer
Khrunichev
Mission
Spacecraft
Bus & Motor
Unknown
Mass
Unknown
Launch date (UTC)
2006-02-28 (20 years ago)
Launch vehicle
Unknown
Launch site
Tyuratam Missile And Space Complex (TTMTR)
Object type
Payload
Rocket body
Debris
Shape & HBR
Unknown shape, 1.1 m
Radar Cross Section
Medium (>0.1 m² and <1 m²)

Expand to show TLE details & history
Last TLE update: 21 hours ago

TLE from 21 hours ago
0 BREEZE-M DEB
1 36962U 06006CU  26162.33266466  .00012151  00000-0  62290-2 0  9992
2 36962  51.5304 122.2931 3902858 156.8301 227.1529  7.35312621260641
Epoch: 2026-06-11T07:59Z
TLE epoch observation values (Epoch: 2026-06-11T07:59:02.226Z)
Latitude
-0.00004°
Longitude
102.85582°
Altitude
8,387.222 km
Speed
4.28 km/s
True Right ascension
08h 09m 10s
True Declination
0° 00' 00"
Sunlit
Object was in daylight at epoch
Visualization orbit readout
Latitude
Unknown
Longitude
Unknown
Altitude
Unknown
Speed
Unknown
Apparent Right ascension
Unknown
Apparent Declination
Unknown
Sunlit
N/A
Visualization observer readout
Local Sidereal Time
15:31:37
Azimuth
Unknown
Elevation
Unknown
Doppler factor
Unknown
Orbital elements
Apogee altitude
9,153.146 km
Perigee altitude
433.156 km
Semi-major axis
11,171.288 km
Eccentricity
0.39029
Inclination
51.5304°
RAAN
122.2931°
Arg. of periapsis
156.8301°
True anomaly
203.2326°
Mean anomaly
227.1529°
Eccentric anomaly
214.49022°
Mean motion
1.83818 °/min
Orbital period
195.85 mins
BSTAR
0.006229
Loading maneuver chart data...
Computing Atmospheric mass density...
Loading historical data...
Loading historical data...
Loading historical data...
Loading historical data...
Loading historical data...
Loading historical data...
Loading historical data...

Documentation

Showing up to 5 results
|